GW3509 Weather Reports


time (UTC)temp
F
wind
direction
speed
knots
gust
knots
rain 1hr
in
rain 24hr
in
rain mn
in
humidity
%
barometer
mb
20260504221020 79 257 2.6 2.6 0.00 0.14 0.14 66 999.4
20260504220517 79 162 1.7 2.6 0.00 0.14 0.14 63 999.8
20260504220014 78 220 2.6 4.3 0.00 0.14 0.14 63 999.7
20260504215510 79 96 0.9 1.7 0.00 0.14 0.14 65 999.8
20260504215008 78 72 4.3 6.1 0.00 0.14 0.14 55 999.6
20260504214504 77 31 2.6 4.3 0.00 0.14 0.14 65 999.6
20260504214001 78 143 0.9 0.9 0.00 0.14 0.14 84 999.6
20260504213456 78 208 0.0 0.0 0.00 0.14 0.14 79 999.4
20260504212954 78 114 0.0 0.0 0.00 0.14 0.14 76 999.3
20260504212450 78 59 0.9 0.9 0.00 0.14 0.14 82 999.3
20260504211948 78 67 0.9 0.9 0.00 0.14 0.14 82 999.4
20260504211444 77 50 0.0 0.9 0.00 0.14 0.14 84 999.4
20260504210942 77 72 0.0 0.0 0.00 0.14 0.14 86 999.6
20260504210438 76 61 0.9 0.9 0.00 0.14 0.14 87 999.6
20260504205935 75 80 0.0 0.0 0.00 0.14 0.14 87 999.8
20260504205433 75 74 0.0 0.0 0.00 0.14 0.14 89 999.7
20260504204931 75 76 0.0 0.0 0.00 0.14 0.14 90 1000.1
20260504204429 76 69 0.9 0.9 0.00 0.14 0.14 89 1000.0
20260504203928 74 91 0.0 0.0 0.00 0.14 0.14 89 1000.1
20260504203425 74 92 0.0 0.0 0.00 0.14 0.14 88 1000.1
20260504202921 73 108 0.9 0.9 0.00 0.14 0.14 86 1000.3
20260504202418 71 86 0.0 0.0 0.00 0.14 0.14 91 1000.2
20260504201915 70 104 0.0 0.9 0.00 0.14 0.14 95 1000.3
20260504201412 69 91 0.0 0.9 0.00 0.14 0.14 95 1000.2
20260504200909 69 81 0.0 0.0 0.00 0.14 0.14 96 1000.3
20260504200406 68 108 0.0 0.9 0.00 0.14 0.14 95 1000.3
20260504195903 66 91 0.0 0.0 0.00 0.14 0.14 95 1000.8
20260504195358 65 109 0.9 0.9 0.07 0.14 0.14 92 1001.2
20260504194855 66 111 0.0 0.0 0.78 0.14 0.14 87 1001.2
20260504194351 67 186 3.5 4.3 0.78 0.13 0.13 86 1002.7
20260504193847 70 356 0.9 1.7 0.07 0.01 0.01 82 1002.4
20260504193344 74 58 0.0 0.9 0.00 0.00 0.00 68 1001.3
20260504192843 76 63 0.9 1.7 0.00 0.00 0.00 55 1001.4
20260504192340 77 245 1.7 1.7 0.00 0.00 0.00 52 1001.0
20260504191839 77 154 1.7 1.7 0.00 0.00 0.00 52 1000.9
20260504191337 78 210 1.7 2.6 0.00 0.00 0.00 51 1000.9
20260504190832 78 67 0.9 0.9 0.00 0.00 0.00 50 1000.8
20260504190328 78 83 0.9 0.9 0.00 0.00 0.00 50 1001.0
20260504185825 78 272 1.7 2.6 0.00 0.00 0.00 56 1000.8
20260504185322 78 90 0.0 0.0 0.00 0.00 0.00 57 1000.9
20260504184818 78 293 2.6 4.3 0.00 0.00 0.00 46 1001.2
20260504184314 0 77 1.7 1.7 0.00 0.00 0.00 1001.0
20260504183809 0 72 0.0 0.0 0.00 0.00 0.00 1000.9
20260504183307 0 137 0.9 1.7 0.00 0.00 0.00 1001.1
20260504182805 0 45 0.0 0.0 0.00 0.00 0.00 1001.2
20260504182304 0 32 1.7 1.7 0.00 0.00 0.00 1001.3
20260504181759 0 55 0.9 0.9 0.00 0.00 0.00 1001.1
20260504181256 0 102 0.9 0.9 0.00 0.00 0.00 1001.2
20260504180755 0 90 0.0 0.0 0.00 0.00 0.00 1001.4
20260504180254 0 335 0.9 0.9 0.00 0.00 0.00 1001.1
20260504175751 0 191 1.7 1.7 0.00 0.00 0.00 1001.2
20260504175248 0 141 0.9 0.9 0.00 0.00 0.00 1001.7
20260504174745 0 146 1.7 1.7 0.00 0.00 0.00 1001.7
20260504174243 0 189 2.6 2.6 0.00 0.00 0.00 1001.4
20260504173739 0 202 1.7 1.7 0.00 0.00 0.00 1001.7
20260504173237 0 210 0.9 0.9 0.00 0.00 0.00 1001.8
20260504172733 0 137 2.6 2.6 0.00 0.00 0.00 1001.8
20260504172230 0 80 0.9 0.9 0.00 0.00 0.00 1001.8
20260504171726 0 171 1.7 1.7 0.00 0.00 0.00 1002.1
20260504171223 0 3 0.9 1.7 0.00 0.00 0.00 1002.0
20260504170720 0 169 2.6 2.6 0.00 0.00 0.00 1002.3
20260504170217 0 117 0.0 0.9 0.00 0.00 0.00 1002.5
20260504160136 0 77 0.0 0.0 0.00 0.00 0.00 1003.8
20260504151103 0 72 0.0 0.0 0.00 0.00 0.00 1003.9
20260504150601 0 34 1.7 1.7 0.00 0.00 0.00 1003.9
20260504141026 0 59 0.0 0.9 0.00 0.00 0.00 1003.9
20260504140523 0 94 0.9 0.9 0.00 0.00 0.00 1003.9
20260504130447 0 88 0.0 0.0 0.00 0.00 0.00 1004.6
20260504110329 0 89 0.0 0.0 0.00 0.00 0.00 1005.0
20260504100245 0 94 0.0 0.0 0.00 0.00 0.00 1004.6
20260504081639 0 79 0.0 0.0 0.00 0.00 0.00 1004.1
20260504081135 0 81 0.0 0.0 0.00 0.00 0.00 1004.3
20260504080632 0 95 0.0 0.0 0.00 0.00 0.00 1004.3
20260504080128 0 83 0.0 0.0 0.00 0.00 0.00 1004.3
20260504050444 0 68 0.0 0.0 0.00 0.00 0.00 1004.9
20260504045941 0 66 0.0 0.0 0.00 0.00 0.00 1005.0
20260504045437 0 79 0.0 0.0 0.00 0.00 0.00 1005.0
20260504044933 0 49 0.9 0.9 0.00 0.00 0.00 1005.4
20260504044431 0 59 0.0 0.0 0.00 0.00 0.00 1005.2
20260504043928 0 82 0.0 0.0 0.00 0.00 0.00 1005.4
20260504043425 0 78 0.0 0.0 0.00 0.00 0.00 1005.4
20260504042918 0 89 0.0 0.0 0.00 0.00 0.00 1005.6
20260504042414 0 80 0.0 0.0 0.00 0.00 0.00 1005.6
20260504041910 0 52 0.0 0.9 0.00 0.00 0.00 1005.6
20260504041407 0 56 0.0 0.0 0.00 0.00 0.00 1005.7
20260504040903 0 63 0.0 0.0 0.00 0.00 0.00 1005.8
20260504040400 0 77 0.0 0.0 0.00 0.00 0.00 1005.9
20260504035855 0 37 0.0 0.0 0.00 0.00 0.00 1005.8
20260504035353 0 75 0.0 0.0 0.00 0.00 0.00 1005.8
20260504034849 0 74 0.0 0.0 0.00 0.00 0.00 1006.0
20260504034347 0 81 0.0 0.0 0.00 0.00 0.00 1006.2
20260504033844 0 81 0.0 0.0 0.00 0.00 0.00 1006.4
20260504033342 0 66 0.0 0.0 0.00 0.00 0.00 1006.5
20260504032838 0 66 0.0 0.0 0.00 0.00 0.00 1006.3
20260504032336 0 68 0.0 0.0 0.00 0.00 0.00 1006.6
20260504031832 0 57 0.0 0.0 0.00 0.00 0.00 1006.3
20260504031330 0 74 0.0 0.0 0.00 0.00 0.00 1006.2
20260504030826 0 50 0.0 0.0 0.00 0.00 0.00 1006.0
20260504030323 0 81 0.0 0.0 0.00 0.00 0.00 1006.0
20260504025819 0 64 0.0 0.0 0.00 0.00 0.00 1006.0
20260504025317 0 81 0.0 0.0 0.00 0.00 0.00 1006.1
20260504024813 0 70 0.0 0.0 0.00 0.00 0.00 1006.2
20260504024310 0 75 0.0 0.0 0.00 0.00 0.00 1005.9
20260504023806 0 71 0.0 0.0 0.00 0.00 0.00 1006.3
20260504023303 0 54 0.9 0.9 0.00 0.00 0.00 1006.0
20260504022759 0 75 0.9 0.9 0.00 0.00 0.00 1006.2
20260504022256 0 68 0.0 0.0 0.00 0.00 0.00 1006.0
20260504021752 0 73 0.0 0.9 0.00 0.00 0.00 1006.2
20260504021250 0 75 0.0 0.0 0.00 0.00 0.00 1006.1
20260504020747 0 59 0.0 0.0 0.00 0.00 0.00 1006.3
20260504020243 0 70 0.0 0.0 0.00 0.00 0.00 1006.0
20260504015739 0 74 0.0 0.0 0.00 0.00 0.00 1006.3
20260504015236 0 71 0.0 0.0 0.00 0.00 0.00 1006.1
20260504014731 0 67 0.0 0.0 0.00 0.00 0.00 1005.8
20260504014228 0 63 0.0 0.0 0.00 0.00 0.00 1005.9
20260504013726 0 59 0.9 0.9 0.00 0.00 0.00 1005.9
20260504013224 0 65 0.0 0.9 0.00 0.00 0.00 1006.1
20260504012720 0 71 0.0 0.0 0.00 0.00 0.00 1006.0
20260504012218 0 58 0.9 0.9 0.00 0.00 0.00 1005.9
20260504011714 0 73 0.0 0.0 0.00 0.00 0.00 1005.8
20260504011211 0 62 0.0 0.9 0.00 0.00 0.00 1005.9
20260504010707 0 61 0.9 0.9 0.00 0.00 0.00 1006.0
20260504010203 0 70 0.0 0.0 0.00 0.00 0.00 1006.0
20260504005700 0 75 0.0 0.0 0.00 0.00 0.00 1005.7
20260504005157 0 70 0.0 0.0 0.00 0.00 0.00 1005.8
20260504004655 0 80 0.0 0.0 0.00 0.00 0.00 1005.7
20260504004151 0 85 0.0 0.0 0.00 0.00 0.00 1005.6
20260504003648 0 82 0.0 0.0 0.00 0.00 0.00 1005.8
20260504003144 0 79 0.0 0.0 0.00 0.00 0.00 1005.5
20260504002641 0 91 0.0 0.0 0.00 0.00 0.00 1005.7
20260504002139 0 101 0.0 0.0 0.00 0.00 0.00 1005.9
20260504001637 0 120 0.0 0.9 0.00 0.00 0.00 1005.8
20260504001132 0 41 0.9 1.7 0.00 0.00 0.00 1005.8
20260504000630 0 68 1.7 1.7 0.00 0.00 0.00 1005.8
20260504000127 0 108 0.9 0.9 0.00 0.00 0.00 1005.7
20260503235625 0 180 0.0 0.9 0.00 0.00 0.00 1005.8
20260503235121 0 85 0.0 0.0 0.00 0.00 0.00 1005.6
20260503234620 0 65 0.9 0.9 0.00 0.00 0.00 1005.9
20260503234117 0 315 0.9 0.9 0.00 0.00 0.00 1005.7
20260503233614 0 156 0.9 0.9 0.00 0.00 0.00 1005.9
20260503233110 0 59 0.9 0.9 0.00 0.00 0.00 1005.6
20260503232607 0 203 0.9 0.9 0.00 0.00 0.00 1005.8
20260503232104 0 62 1.7 1.7 0.00 0.00 0.00 1005.9
20260503231602 0 98 0.0 0.0 0.00 0.00 0.00 1006.0
20260503231059 0 62 2.6 2.6 0.00 0.00 0.00 1005.9
20260503230555 0 81 0.9 0.9 0.00 0.00 0.00 1005.8
20260503230053 0 109 0.9 0.9 0.00 0.00 0.00 1006.1
20260503225549 0 99 2.6 2.6 0.00 0.00 0.00 1006.0
20260503225044 0 104 0.9 0.9 0.00 0.00 0.00 1006.2
20260503224542 0 93 0.9 0.9 0.00 0.00 0.00 1006.3
20260503224040 0 193 1.7 1.7 0.00 0.00 0.00 1006.3
20260503223538 0 113 0.9 1.7 0.00 0.00 0.00 1006.3
20260503223033 0 76 1.7 2.6 0.00 0.00 0.00 1006.4
20260503222531 0 203 1.7 1.7 0.00 0.00 0.00 1006.2
20260503222029 0 341 2.6 4.3 0.00 0.00 0.00 1006.2
20260503221527 0 84 2.6 2.6 0.00 0.00 0.00 1006.3